Time,TemperatureF,DewpointF,PressureIn,WindDirection,WindDirectionDegrees,WindSpeedMPH,WindSpeedGustMPH,Humidity,HourlyPrecipIn,Conditions,Clouds,dailyrainin,SoftwareType,DateUTC
2013-01-19 00:12:00,49.0,-99.9,30.37,NE,50,8.0,-999.0,-999,-99.99,,,-99.99,,2013-01-19 06:12:00,
2013-01-19 00:23:00,49.0,-99.9,30.37,NE,50,8.0,-999.0,-999,-99.99,,,-99.99,,2013-01-19 06:23:00,
2013-01-19 00:30:00,49.0,-99.9,30.36,NE,40,9.0,-999.0,-999,-99.99,,,-99.99,,2013-01-19 06:30:00,
2013-01-19 01:00:00,49.0,-99.9,30.36,NNE,20,10.0,-999.0,-999,-99.99,,,-99.99,,2013-01-19 07:00:00,
2013-01-19 01:12:00,49.0,-99.9,30.36,NE,40,9.0,-999.0,-999,-99.99,,,-99.99,,2013-01-19 07:12:00,
2013-01-19 01:23:00,49.0,-99.9,30.36,NE,40,9.0,-999.0,-999,-99.99,,,-99.99,,2013-01-19 07:23:00,
2013-01-19 01:30:00,48.0,-99.9,30.36,North,350,13.0,-999.0,-999,-99.99,,,-99.99,,2013-01-19 07:30:00,
2013-01-19 01:43:00,49.0,-99.9,30.36,NNE,20,10.0,-999.0,-999,-99.99,,,-99.99,,2013-01-19 07:43:00,
2013-01-19 01:53:00,49.0,-99.9,30.36,NNE,20,10.0,-999.0,-999,-99.99,,,-99.99,,2013-01-19 07:53:00,
2013-01-19 02:00:00,48.0,-99.9,30.36,North,360,14.0,-999.0,-999,-99.99,,,-99.99,,2013-01-19 08:00:00,
2013-01-19 02:12:00,48.0,-99.9,30.36,North,350,13.0,-999.0,-999,-99.99,,,-99.99,,2013-01-19 08:12:00,
2013-01-19 02:22:00,48.0,-99.9,30.36,North,350,13.0,-999.0,-999,-99.99,,,-99.99,,2013-01-19 08:22:00,
2013-01-19 02:30:00,48.0,-99.9,30.36,North,360,13.0,-999.0,-999,-99.99,,,-99.99,,2013-01-19 08:30:00,
2013-01-19 02:43:00,48.0,-99.9,30.36,North,360,14.0,-999.0,-999,-99.99,,,-99.99,,2013-01-19 08:43:00,
2013-01-19 02:53:00,48.0,-99.9,30.36,North,360,14.0,-999.0,-999,-99.99,,,-99.99,,2013-01-19 08:53:00,
2013-01-19 03:00:00,48.0,-99.9,30.36,North,10,10.0,-999.0,-999,-99.99,,,-99.99,,2013-01-19 09:00:00,
2013-01-19 03:23:00,48.0,-99.9,30.36,North,360,13.0,-999.0,-999,-99.99,,,-99.99,,2013-01-19 09:23:00,
2013-01-19 03:30:00,48.0,-99.9,30.35,North,10,11.0,-999.0,-999,-99.99,,,-99.99,,2013-01-19 09:30:00,
2013-01-19 03:43:00,48.0,-99.9,30.36,North,10,10.0,-999.0,-999,-99.99,,,-99.99,,2013-01-19 09:43:00,
2013-01-19 03:53:00,48.0,-99.9,30.36,North,10,10.0,-999.0,-999,-99.99,,,-99.99,,2013-01-19 09:53:00,
2013-01-19 04:00:00,47.0,-99.9,30.35,North,10,13.0,-999.0,-999,-99.99,,,-99.99,,2013-01-19 10:00:00,
2013-01-19 04:13:00,48.0,-99.9,30.35,North,10,11.0,-999.0,-999,-99.99,,,-99.99,,2013-01-19 10:13:00,
2013-01-19 04:23:00,48.0,-99.9,30.35,North,10,11.0,-999.0,-999,-99.99,,,-99.99,,2013-01-19 10:23:00,
2013-01-19 04:43:00,47.0,-99.9,30.35,North,10,13.0,-999.0,-999,-99.99,,,-99.99,,2013-01-19 10:43:00,
2013-01-19 04:53:00,47.0,-99.9,30.35,North,10,13.0,-999.0,-999,-99.99,,,-99.99,,2013-01-19 10:53:00,
2013-01-19 05:13:00,47.0,-99.9,30.35,NNE,30,13.0,-999.0,-999,-99.99,,,-99.99,,2013-01-19 11:13:00,
2013-01-19 06:00:00,46.0,-99.9,30.35,NE,40,13.0,-999.0,-999,-99.99,,,-99.99,,2013-01-19 12:00:00,
2013-01-19 06:30:00,45.0,-99.9,30.36,NE,40,10.0,-999.0,-999,-99.99,,,-99.99,,2013-01-19 12:30:00,
2013-01-19 06:49:00,46.0,-99.9,30.35,NE,40,13.0,-999.0,-999,-99.99,,,-99.99,,2013-01-19 12:49:00,
2013-01-19 06:53:00,46.0,-99.9,30.35,NE,40,13.0,-999.0,-999,-99.99,,,-99.99,,2013-01-19 12:53:00,
2013-01-19 07:00:00,46.0,-99.9,30.36,NNE,30,11.0,-999.0,-999,-99.99,,,-99.99,,2013-01-19 13:00:00,
2013-01-19 07:13:00,45.0,-99.9,30.36,NE,40,10.0,-999.0,-999,-99.99,,,-99.99,,2013-01-19 13:13:00,
2013-01-19 07:23:00,45.0,-99.9,30.36,NE,40,10.0,-999.0,-999,-99.99,,,-99.99,,2013-01-19 13:23:00,
2013-01-19 07:30:00,48.0,-99.9,30.37,NNE,30,11.0,-999.0,-999,-99.99,,,-99.99,,2013-01-19 13:30:00,
2013-01-19 07:43:00,46.0,-99.9,30.36,NNE,30,11.0,-999.0,-999,-99.99,,,-99.99,,2013-01-19 13:43:00,
2013-01-19 07:54:00,46.0,-99.9,30.36,NNE,30,11.0,-999.0,-999,-99.99,,,-99.99,,2013-01-19 13:54:00,
2013-01-19 08:00:00,49.0,-99.9,30.37,NNE,30,11.0,-999.0,-999,-99.99,,,-99.99,,2013-01-19 14:00:00,
2013-01-19 08:13:00,48.0,-99.9,30.37,NNE,30,11.0,-999.0,-999,-99.99,,,-99.99,,2013-01-19 14:13:00,
2013-01-19 08:23:00,48.0,-99.9,30.37,NNE,30,11.0,-999.0,-999,-99.99,,,-99.99,,2013-01-19 14:23:00,
2013-01-19 08:30:00,51.0,-99.9,30.37,NNE,20,10.0,-999.0,-999,-99.99,,,-99.99,,2013-01-19 14:30:00,
2013-01-19 08:43:00,49.0,-99.9,30.37,NNE,30,11.0,-999.0,-999,-99.99,,,-99.99,,2013-01-19 14:43:00,
2013-01-19 08:54:00,49.0,-99.9,30.37,NNE,30,11.0,-999.0,-999,-99.99,,,-99.99,,2013-01-19 14:54:00,
2013-01-19 09:00:00,51.0,-99.9,30.37,NNE,30,10.0,-999.0,-999,-99.99,,,-99.99,,2013-01-19 15:00:00,
2013-01-19 09:13:00,51.0,-99.9,30.37,NNE,20,10.0,-999.0,-999,-99.99,,,-99.99,,2013-01-19 15:13:00,
2013-01-19 09:23:00,51.0,-99.9,30.37,NNE,20,10.0,-999.0,-999,-99.99,,,-99.99,,2013-01-19 15:23:00,
2013-01-19 09:30:00,52.0,-99.9,30.39,NNE,20,8.0,-999.0,-999,-99.99,,,-99.99,,2013-01-19 15:30:00,
2013-01-19 09:43:00,51.0,-99.9,30.37,NNE,30,10.0,-999.0,-999,-99.99,,,-99.99,,2013-01-19 15:43:00,
2013-01-19 09:54:00,51.0,-99.9,30.37,NNE,30,10.0,-999.0,-999,-99.99,,,-99.99,,2013-01-19 15:54:00,
2013-01-19 10:00:00,55.0,-99.9,30.37,North,360,7.0,-999.0,-999,-99.99,,,-99.99,,2013-01-19 16:00:00,
2013-01-19 10:13:00,52.0,-99.9,30.39,NNE,20,8.0,-999.0,-999,-99.99,,,-99.99,,2013-01-19 16:13:00,
2013-01-19 10:23:00,52.0,-99.9,30.39,NNE,20,8.0,-999.0,-999,-99.99,,,-99.99,,2013-01-19 16:23:00,
2013-01-19 10:30:00,55.0,-99.9,30.37,North,350,8.0,-999.0,-999,-99.99,,,-99.99,,2013-01-19 16:30:00,
2013-01-19 10:43:00,55.0,-99.9,30.37,North,360,7.0,-999.0,-999,-99.99,,,-99.99,,2013-01-19 16:43:00,
2013-01-19 10:54:00,55.0,-99.9,30.37,North,360,7.0,-999.0,-999,-99.99,,,-99.99,,2013-01-19 16:54:00,
2013-01-19 11:00:00,53.0,-99.9,30.35,NNW,340,9.0,-999.0,-999,-99.99,,,-99.99,,2013-01-19 17:00:00,
2013-01-19 11:23:00,55.0,-99.9,30.37,North,350,8.0,-999.0,-999,-99.99,,,-99.99,,2013-01-19 17:23:00,
2013-01-19 11:29:00,55.0,-99.9,30.37,North,350,8.0,-999.0,-999,-99.99,,,-99.99,,2013-01-19 17:29:00,
2013-01-19 11:30:00,54.0,-99.9,30.33,NNW,340,9.0,-999.0,-999,-99.99,,,-99.99,,2013-01-19 17:30:00,
2013-01-19 11:50:00,53.0,-99.9,30.35,NNW,340,9.0,-999.0,-999,-99.99,,,-99.99,,2013-01-19 17:50:00,
2013-01-19 11:56:00,53.0,-99.9,30.35,NNW,340,9.0,-999.0,-999,-99.99,,,-99.99,,2013-01-19 17:56:00,
2013-01-19 12:00:00,55.0,-99.9,30.31,NNW,330,9.0,-999.0,-999,-99.99,,,-99.99,,2013-01-19 18:00:00,
2013-01-19 12:15:00,54.0,-99.9,30.33,NNW,340,9.0,-999.0,-999,-99.99,,,-99.99,,2013-01-19 18:15:00,
2013-01-19 12:30:00,58.0,-99.9,30.30,NNW,330,8.0,-999.0,-999,-99.99,,,-99.99,,2013-01-19 18:30:00,
2013-01-19 13:00:00,58.0,-99.9,30.28,NW,310,6.0,-999.0,-999,-99.99,,,-99.99,,2013-01-19 19:00:00,
2013-01-19 13:30:00,58.0,-99.9,30.27,WNW,300,6.0,-999.0,-999,-99.99,,,-99.99,,2013-01-19 19:30:00,
2013-01-19 13:50:00,58.0,-99.9,30.28,NW,310,6.0,-999.0,-999,-99.99,,,-99.99,,2013-01-19 19:50:00,
2013-01-19 13:59:00,58.0,-99.9,30.28,NW,310,6.0,-999.0,-999,-99.99,,,-99.99,,2013-01-19 19:59:00,
2013-01-19 14:00:00,58.0,-99.9,30.25,WNW,300,6.0,-999.0,-999,-99.99,,,-99.99,,2013-01-19 20:00:00,
2013-01-19 14:20:00,58.0,-99.9,30.27,WNW,300,6.0,-999.0,-999,-99.99,,,-99.99,,2013-01-19 20:20:00,
2013-01-19 14:28:00,58.0,-99.9,30.27,WNW,300,6.0,-999.0,-999,-99.99,,,-99.99,,2013-01-19 20:28:00,
2013-01-19 14:51:00,58.0,-99.9,30.25,WNW,300,6.0,-999.0,-999,-99.99,,,-99.99,,2013-01-19 20:51:00,
2013-01-19 15:00:00,58.0,-99.9,30.24,WNW,290,5.0,-999.0,-999,-99.99,,,-99.99,,2013-01-19 21:00:00,
2013-01-19 15:15:00,56.0,-99.9,30.25,West,280,7.0,-999.0,-999,-99.99,,,-99.99,,2013-01-19 21:15:00,
2013-01-19 15:56:00,58.0,-99.9,30.24,WNW,290,5.0,-999.0,-999,-99.99,,,-99.99,,2013-01-19 21:56:00,
2013-01-19 16:00:00,58.0,-99.9,30.24,NW,310,2.0,-999.0,-999,-99.99,,,-99.99,,2013-01-19 22:00:00,
2013-01-19 16:20:00,58.0,-99.9,30.24,NW,320,7.0,-999.0,-999,-99.99,,,-99.99,,2013-01-19 22:20:00,
2013-01-19 16:30:00,57.0,-99.9,30.24,North,0,0.0,-999.0,-999,-99.99,,,-99.99,,2013-01-19 22:30:00,
2013-01-19 16:49:00,58.0,-99.9,30.24,NW,310,2.0,-999.0,-999,-99.99,,,-99.99,,2013-01-19 22:49:00,
2013-01-19 16:59:00,58.0,-99.9,30.24,NW,310,2.0,-999.0,-999,-99.99,,,-99.99,,2013-01-19 22:59:00,
2013-01-19 17:00:00,56.0,-99.9,30.24,South,170,6.0,-999.0,-999,-99.99,,,-99.99,,2013-01-19 23:00:00,
2013-01-19 17:54:00,56.0,-99.9,30.24,South,170,6.0,-999.0,-999,-99.99,,,-99.99,,2013-01-19 23:54:00,
2013-01-19 18:00:00,56.0,-99.9,30.25,South,170,6.0,-999.0,-999,-99.99,,,-99.99,,2013-01-20 00:00:00,
2013-01-19 18:17:00,55.0,-99.9,30.24,SSE,160,6.0,-999.0,-999,-99.99,,,-99.99,,2013-01-20 00:17:00,
2013-01-19 18:26:00,55.0,-99.9,30.24,SSE,160,6.0,-999.0,-999,-99.99,,,-99.99,,2013-01-20 00:26:00,
2013-01-19 18:49:00,56.0,-99.9,30.25,South,170,6.0,-999.0,-999,-99.99,,,-99.99,,2013-01-20 00:49:00,
2013-01-19 18:59:00,56.0,-99.9,30.25,South,170,6.0,-999.0,-999,-99.99,,,-99.99,,2013-01-20 00:59:00,
2013-01-19 20:00:00,54.0,-99.9,30.25,SE,130,5.0,-999.0,-999,-99.99,,,-99.99,,2013-01-20 02:00:00,
2013-01-19 20:30:00,53.0,-99.9,30.25,East,90,3.0,-999.0,-999,-99.99,,,-99.99,,2013-01-20 02:30:00,
2013-01-19 20:47:00,54.0,-99.9,30.25,SE,130,5.0,-999.0,-999,-99.99,,,-99.99,,2013-01-20 02:47:00,
2013-01-19 21:00:00,53.0,-99.9,30.25,North,360,6.0,-999.0,-999,-99.99,,,-99.99,,2013-01-20 03:00:00,
2013-01-19 21:15:00,53.0,-99.9,30.25,East,90,3.0,-999.0,-999,-99.99,,,-99.99,,2013-01-20 03:15:00,
2013-01-19 21:27:00,53.0,-99.9,30.25,East,90,3.0,-999.0,-999,-99.99,,,-99.99,,2013-01-20 03:27:00,
2013-01-19 21:30:00,53.0,-99.9,30.25,North,350,6.0,-999.0,-999,-99.99,,,-99.99,,2013-01-20 03:30:00,
2013-01-19 21:48:00,53.0,-99.9,30.25,North,360,6.0,-999.0,-999,-99.99,,,-99.99,,2013-01-20 03:48:00,
2013-01-19 21:59:00,53.0,-99.9,30.25,North,360,6.0,-999.0,-999,-99.99,,,-99.99,,2013-01-20 03:59:00,
2013-01-19 22:00:00,53.0,-99.9,30.25,NNE,20,5.0,-999.0,-999,-99.99,,,-99.99,,2013-01-20 04:00:00,
2013-01-19 22:16:00,53.0,-99.9,30.25,North,350,6.0,-999.0,-999,-99.99,,,-99.99,,2013-01-20 04:16:00,
2013-01-19 22:28:00,53.0,-99.9,30.25,North,350,6.0,-999.0,-999,-99.99,,,-99.99,,2013-01-20 04:28:00,
2013-01-19 22:30:00,53.0,-99.9,30.25,NNE,20,6.0,-999.0,-999,-99.99,,,-99.99,,2013-01-20 04:30:00,
2013-01-19 22:45:00,53.0,-99.9,30.25,NNE,20,5.0,-999.0,-999,-99.99,,,-99.99,,2013-01-20 04:45:00,
2013-01-19 23:00:00,53.0,-99.9,30.24,NNE,20,5.0,-999.0,-999,-99.99,,,-99.99,,2013-01-20 05:00:00,
2013-01-19 23:12:00,53.0,-99.9,30.25,NNE,20,6.0,-999.0,-999,-99.99,,,-99.99,,2013-01-20 05:12:00,
2013-01-19 23:23:00,53.0,-99.9,30.25,NNE,20,6.0,-999.0,-999,-99.99,,,-99.99,,2013-01-20 05:23:00,
2013-01-19 23:30:00,52.0,-99.9,30.25,North,10,3.0,-999.0,-999,-99.99,,,-99.99,,2013-01-20 05:30:00,
2013-01-19 23:43:00,53.0,-99.9,30.24,NNE,20,5.0,-999.0,-999,-99.99,,,-99.99,,2013-01-20 05:43:00,
2013-01-19 23:53:00,53.0,-99.9,30.24,NNE,20,5.0,-999.0,-999,-99.99,,,-99.99,,2013-01-20 05:53:00,